Location: Bondula
(6.3703°N, 10.6756°W)
Time: 04:19:41
(UTC+00:00)

Cosmos 1602 Rocket - Pass Details

Date: 22 October 2019
Orbit: 604 x 633 km, 82.5° (Epoch: 18 November)

Event Time Altitude Azimuth Distance (km) Brightness Sun altitude
Rises 05:38:34 0° 180° (S) 2,882 7.1 -13.1°
Reaches altitude 10° 05:40:49 10° 177° (S) 1,971 6.3 -12.6°
Maximum altitude 05:45:09 71° 94° (E) 646 3.8 -11.5°
Drops below altitude 10° 05:49:27 10° 10° (N) 1,951 6.1 -10.5°
Sets 05:51:39 0° 8° (N) 2,850 6.9 -9.9°
